This is the latest recevied weather packets stored in our database for station/object ON7SD-5. If no packets are shown the sender has not sent any weather packets the latest 10 day(s).
| Time | Temp. | Humidity | Pressure | Rain* | Wind** | Luminosity | Snow |
|---|---|---|---|---|---|---|---|
| 1777724533 | 24.44° C | 55% | 1015.8 hPa | 0 mm | - | 626 W/m² | - |
| 1777724233 | 23.89° C | 56% | 1015.9 hPa | 0 mm | - | 635 W/m² | - |
| 1777723933 | 24.44° C | 55% | 1015.9 hPa | 0 mm | - | 715 W/m² | - |
| 1777723633 | 24.44° C | 54% | 1015.9 hPa | 0 mm | - | 631 W/m² | - |
| 1777723333 | 25° C | 53% | 1016 hPa | 0 mm | - | 777 W/m² | - |
| 1777723033 | 24.44° C | 55% | 1016.2 hPa | 0 mm | - | 807 W/m² | - |
| 1777722733 | 24.44° C | 56% | 1016.2 hPa | 0 mm | - | 742 W/m² | - |
| 1777722433 | 23.89° C | 58% | 1016.3 hPa | 0 mm | - | 793 W/m² | - |
| 1777722133 | 23.89° C | 57% | 1016.3 hPa | 0 mm | - | 824 W/m² | - |
| 1777721833 | 23.33° C | 59% | 1016.3 hPa | 0 mm | - | 817 W/m² | - |
| 1777721533 | 23.33° C | 58% | 1016.4 hPa | 0 mm | - | 823 W/m² | - |
| 1777721233 | 23.89° C | 59% | 1016.5 hPa | 0 mm | - | 809 W/m² | - |
| 1777720933 | 23.89° C | 60% | 1016.6 hPa | 0 mm | - | 803 W/m² | - |
| 1777720633 | 23.33° C | 60% | 1016.6 hPa | 0 mm | - | 784 W/m² | - |
| 1777720333 | 23.33° C | 60% | 1016.7 hPa | 0 mm | - | 824 W/m² | - |
| 1777720033 | 23.33° C | 60% | 1016.7 hPa | 0 mm | - | 824 W/m² | - |
| 1777719733 | 23.33° C | 61% | 1016.7 hPa | 0 mm | - | 868 W/m² | - |
| 1777719435 | 23.33° C | 65% | 1016.7 hPa | 0 mm | - | 870 W/m² | - |
| 1777719133 | 22.22° C | 67% | 1016.8 hPa | 0 mm | - | 960 W/m² | - |
| 1777718833 | 22.22° C | 67% | 1016.9 hPa | 0 mm | - | 350 W/m² | - |
| 1777718533 | 21.67° C | 69% | 1016.9 hPa | 0 mm | - | 752 W/m² | - |
| 1777718233 | 21.11° C | 71% | 1017 hPa | 0 mm | - | 772 W/m² | - |
| 1777717933 | 20.56° C | 72% | 1017.1 hPa | 0 mm | - | 686 W/m² | - |
| 1777717633 | 20.56° C | 72% | 1017.2 hPa | 0 mm | - | 295 W/m² | - |
| 1777717333 | 20.56° C | 72% | 1017.3 hPa | 0 mm | - | 250 W/m² | - |
* Rain latest hour (hover to see other rain measurements)
** Current wind speed in m/s (hover to see current wind gust speed)